Time,TemperatureF,DewpointF,PressureIn,WindDirection,WindDirectionDegrees,WindSpeedMPH,WindSpeedGustMPH,Humidity,HourlyPrecipIn,Conditions,Clouds,dailyrainin,SoftwareType,DateUTC
2013-02-05 00:01:00,33.0,32.0,27.99,WSW,250,0.0,1.0,97,0.00,,,0.01,,2013-02-05 08:01:00,
2013-02-05 00:11:00,33.0,32.0,27.99,WSW,250,0.0,1.0,97,0.00,,,0.01,,2013-02-05 08:11:00,
2013-02-05 00:21:00,33.0,32.0,27.98,WSW,250,0.0,0.0,97,0.00,,,0.01,,2013-02-05 08:21:00,
2013-02-05 00:31:00,33.0,32.0,27.98,WSW,250,0.0,0.0,97,0.00,,,0.01,,2013-02-05 08:31:00,
2013-02-05 00:41:00,33.0,32.0,27.98,WSW,250,0.0,0.0,97,0.00,,,0.01,,2013-02-05 08:41:00,
2013-02-05 00:52:00,33.0,32.0,27.98,WSW,251,0.0,0.0,97,0.00,,,0.01,,2013-02-05 08:52:00,
2013-02-05 01:02:00,33.0,32.0,27.97,WSW,248,0.0,1.0,97,0.00,,,0.01,,2013-02-05 09:02:00,
2013-02-05 01:11:00,33.0,32.0,27.97,WSW,248,0.0,1.0,97,0.00,,,0.01,,2013-02-05 09:11:00,
2013-02-05 01:21:00,33.0,32.0,27.97,SW,232,0.0,1.0,97,0.00,,,0.01,,2013-02-05 09:21:00,
2013-02-05 01:31:00,33.0,32.0,27.97,SW,233,0.0,1.0,97,0.00,,,0.01,,2013-02-05 09:31:00,
2013-02-05 01:41:00,33.0,32.0,27.97,SW,233,0.0,1.0,97,0.00,,,0.01,,2013-02-05 09:41:00,
2013-02-05 01:51:00,33.0,32.0,27.96,SW,232,0.0,0.0,97,0.00,,,0.01,,2013-02-05 09:51:00,
2013-02-05 02:01:00,33.0,32.0,27.97,SW,214,0.0,1.0,97,0.00,,,0.01,,2013-02-05 10:01:00,
2013-02-05 02:11:00,33.0,32.0,27.97,SW,214,0.0,1.0,97,0.00,,,0.01,,2013-02-05 10:11:00,
2013-02-05 02:21:00,34.0,33.0,27.96,SSE,155,0.0,1.0,97,0.00,,,0.01,,2013-02-05 10:21:00,
2013-02-05 02:31:00,34.0,33.0,27.96,SSE,155,0.0,0.0,97,0.00,,,0.01,,2013-02-05 10:31:00,
2013-02-05 02:42:00,34.0,33.0,27.96,SSE,155,0.0,0.0,97,0.00,,,0.01,,2013-02-05 10:42:00,
2013-02-05 02:52:00,33.0,32.0,27.95,SSE,155,0.0,0.0,97,0.00,,,0.01,,2013-02-05 10:52:00,
2013-02-05 03:01:00,33.0,32.0,27.95,SSW,208,0.0,1.0,97,0.00,,,0.01,,2013-02-05 11:01:00,
2013-02-05 03:11:00,33.0,32.0,27.95,SSW,208,0.0,1.0,97,0.00,,,0.01,,2013-02-05 11:11:00,
2013-02-05 03:21:00,33.0,32.0,27.94,WSW,255,0.0,1.0,97,0.00,,,0.01,,2013-02-05 11:21:00,
2013-02-05 03:32:00,33.0,32.0,27.93,WSW,250,0.0,1.0,97,0.00,,,0.01,,2013-02-05 11:32:00,
2013-02-05 03:41:00,33.0,32.0,27.93,WSW,250,0.0,1.0,97,0.00,,,0.01,,2013-02-05 11:41:00,
2013-02-05 03:52:00,33.0,32.0,27.92,WSW,238,0.0,1.0,97,0.00,,,0.01,,2013-02-05 11:52:00,
2013-02-05 04:01:00,34.0,33.0,27.92,WSW,238,0.0,1.0,97,0.00,,,0.01,,2013-02-05 12:01:00,
2013-02-05 04:12:00,34.0,33.0,27.92,WSW,238,0.0,1.0,97,0.00,,,0.01,,2013-02-05 12:12:00,
2013-02-05 04:21:00,33.0,32.0,27.92,NW,318,1.0,2.0,97,0.00,,,0.01,,2013-02-05 12:21:00,
2013-02-05 04:31:00,34.0,33.0,27.92,WNW,288,0.0,3.0,97,0.00,,,0.01,,2013-02-05 12:31:00,
2013-02-05 04:41:00,34.0,33.0,27.92,WNW,288,0.0,3.0,97,0.00,,,0.01,,2013-02-05 12:41:00,
2013-02-05 04:52:00,34.0,33.0,27.92,WSW,240,0.0,1.0,97,0.00,,,0.01,,2013-02-05 12:52:00,
2013-02-05 05:01:00,34.0,33.0,27.91,WSW,240,0.0,0.0,97,0.00,,,0.01,,2013-02-05 13:01:00,
2013-02-05 05:11:00,34.0,33.0,27.91,WSW,240,0.0,0.0,97,0.00,,,0.01,,2013-02-05 13:11:00,
2013-02-05 05:21:00,34.0,33.0,27.91,WSW,245,0.0,1.0,97,0.00,,,0.01,,2013-02-05 13:21:00,
2013-02-05 05:31:00,34.0,33.0,27.90,WSW,245,0.0,0.0,97,0.00,,,0.01,,2013-02-05 13:31:00,
2013-02-05 05:41:00,34.0,33.0,27.90,WSW,245,0.0,0.0,97,0.00,,,0.01,,2013-02-05 13:41:00,
2013-02-05 05:51:00,33.0,32.0,27.90,WSW,245,0.0,0.0,97,0.00,,,0.01,,2013-02-05 13:51:00,
2013-02-05 06:01:00,33.0,32.0,27.89,WSW,245,0.0,0.0,97,0.00,,,0.01,,2013-02-05 14:01:00,
2013-02-05 06:12:00,33.0,32.0,27.89,WSW,245,0.0,0.0,97,0.00,,,0.01,,2013-02-05 14:12:00,
2013-02-05 06:21:00,33.0,32.0,27.89,ESE,116,0.0,1.0,97,0.00,,,0.01,,2013-02-05 14:21:00,
2013-02-05 06:31:00,33.0,32.0,27.89,ESE,115,0.0,0.0,97,0.00,,,0.01,,2013-02-05 14:31:00,
2013-02-05 06:41:00,33.0,32.0,27.89,ESE,115,0.0,0.0,97,0.00,,,0.01,,2013-02-05 14:41:00,
2013-02-05 06:52:00,34.0,33.0,27.89,NW,307,1.0,4.0,97,0.00,,,0.01,,2013-02-05 14:52:00,
2013-02-05 07:01:00,34.0,33.0,27.90,NW,323,1.0,5.0,97,0.01,,,0.02,,2013-02-05 15:01:00,
2013-02-05 07:11:00,34.0,33.0,27.90,NW,323,1.0,5.0,97,0.01,,,0.02,,2013-02-05 15:11:00,
2013-02-05 07:21:00,34.0,33.0,27.89,West,271,2.0,5.0,96,0.01,,,0.02,,2013-02-05 15:21:00,
2013-02-05 07:32:00,34.0,33.0,27.89,WNW,295,0.0,1.0,96,0.01,,,0.02,,2013-02-05 15:32:00,
2013-02-05 07:41:00,34.0,33.0,27.89,WNW,295,0.0,1.0,96,0.01,,,0.02,,2013-02-05 15:41:00,
2013-02-05 07:52:00,33.0,32.0,27.90,WNW,290,0.0,2.0,96,0.01,,,0.02,,2013-02-05 15:52:00,
2013-02-05 08:01:00,34.0,33.0,27.90,WNW,290,1.0,3.0,96,0.00,,,0.02,,2013-02-05 16:01:00,
2013-02-05 08:11:00,34.0,33.0,27.90,WNW,290,1.0,3.0,96,0.00,,,0.02,,2013-02-05 16:11:00,
2013-02-05 08:22:00,34.0,33.0,27.89,NW,311,0.0,2.0,96,0.00,,,0.02,,2013-02-05 16:22:00,
2013-02-05 08:32:00,34.0,33.0,27.89,NW,311,0.0,1.0,96,0.00,,,0.02,,2013-02-05 16:32:00,
2013-02-05 08:41:00,34.0,33.0,27.89,NW,311,0.0,1.0,96,0.00,,,0.02,,2013-02-05 16:41:00,
2013-02-05 08:51:00,34.0,33.0,27.88,NW,311,0.0,0.0,96,0.00,,,0.02,,2013-02-05 16:51:00,
2013-02-05 09:01:00,34.0,33.0,27.87,NW,310,0.0,1.0,96,0.00,,,0.02,,2013-02-05 17:01:00,
2013-02-05 09:11:00,34.0,33.0,27.87,NW,310,0.0,1.0,96,0.00,,,0.02,,2013-02-05 17:11:00,
2013-02-05 09:21:00,34.0,33.0,27.87,WNW,300,0.0,3.0,96,0.00,,,0.02,,2013-02-05 17:21:00,
2013-02-05 09:32:00,34.0,33.0,27.87,WNW,283,0.0,2.0,96,0.00,,,0.02,,2013-02-05 17:32:00,
2013-02-05 09:41:00,34.0,33.0,27.87,WNW,283,0.0,2.0,96,0.00,,,0.02,,2013-02-05 17:41:00,
2013-02-05 09:52:00,35.0,34.0,27.88,ESE,110,1.0,3.0,95,0.00,,,0.02,,2013-02-05 17:52:00,
2013-02-05 10:01:00,35.0,34.0,27.88,ESE,103,0.0,1.0,95,0.00,,,0.02,,2013-02-05 18:01:00,
2013-02-05 10:11:00,35.0,34.0,27.88,ESE,103,0.0,1.0,95,0.00,,,0.02,,2013-02-05 18:11:00,
2013-02-05 10:21:00,35.0,34.0,27.88,East,99,0.0,1.0,95,0.00,,,0.02,,2013-02-05 18:21:00,
2013-02-05 10:32:00,35.0,33.0,27.88,East,96,0.0,2.0,94,0.00,,,0.02,,2013-02-05 18:32:00,
2013-02-05 10:42:00,35.0,33.0,27.88,East,96,0.0,2.0,94,0.00,,,0.02,,2013-02-05 18:42:00,
2013-02-05 10:52:00,35.0,33.0,27.88,East,93,0.0,1.0,94,0.00,,,0.02,,2013-02-05 18:52:00,
2013-02-05 11:01:00,36.0,34.0,27.88,NE,46,0.0,1.0,94,0.00,,,0.02,,2013-02-05 19:01:00,
2013-02-05 11:11:00,36.0,34.0,27.88,NE,46,0.0,1.0,94,0.00,,,0.02,,2013-02-05 19:11:00,
2013-02-05 11:21:00,36.0,34.0,27.88,ESE,119,0.0,2.0,94,0.00,,,0.02,,2013-02-05 19:21:00,
2013-02-05 11:31:00,37.0,35.0,27.88,NW,308,0.0,3.0,93,0.00,,,0.02,,2013-02-05 19:31:00,
2013-02-05 11:42:00,37.0,35.0,27.88,NW,308,0.0,3.0,93,0.00,,,0.02,,2013-02-05 19:42:00,
2013-02-05 11:51:00,38.0,36.0,27.87,ENE,71,0.0,1.0,91,0.00,,,0.02,,2013-02-05 19:51:00,
2013-02-05 12:01:00,38.0,36.0,27.86,NNE,12,0.0,1.0,92,0.00,,,0.02,,2013-02-05 20:01:00,
2013-02-05 12:11:00,38.0,36.0,27.86,NNE,12,0.0,1.0,92,0.00,,,0.02,,2013-02-05 20:11:00,
2013-02-05 12:21:00,39.0,36.0,27.86,SSW,195,1.0,2.0,89,0.00,,,0.02,,2013-02-05 20:21:00,
2013-02-05 12:32:00,39.0,36.0,27.86,ESE,105,0.0,2.0,89,0.00,,,0.02,,2013-02-05 20:32:00,
2013-02-05 12:41:00,39.0,36.0,27.86,ESE,105,0.0,2.0,89,0.00,,,0.02,,2013-02-05 20:41:00,
2013-02-05 12:52:00,39.0,36.0,27.85,ESE,105,0.0,2.0,90,0.00,,,0.02,,2013-02-05 20:52:00,
2013-02-05 13:01:00,39.0,36.0,27.85,ESE,105,0.0,2.0,90,0.00,,,0.02,,2013-02-05 21:01:00,
2013-02-05 13:11:00,39.0,36.0,27.85,ESE,105,0.0,2.0,90,0.00,,,0.02,,2013-02-05 21:11:00,
2013-02-05 13:21:00,39.0,36.0,27.84,SE,141,0.0,2.0,89,0.00,,,0.02,,2013-02-05 21:21:00,
2013-02-05 13:31:00,39.0,36.0,27.83,East,93,0.0,2.0,88,0.00,,,0.02,,2013-02-05 21:31:00,
2013-02-05 13:42:00,39.0,36.0,27.83,East,93,0.0,2.0,88,0.00,,,0.02,,2013-02-05 21:42:00,
2013-02-05 13:52:00,40.0,36.0,27.83,ENE,74,0.0,1.0,87,0.00,,,0.02,,2013-02-05 21:52:00,
2013-02-05 14:01:00,40.0,36.0,27.82,East,91,0.0,2.0,87,0.00,,,0.02,,2013-02-05 22:01:00,
2013-02-05 14:11:00,40.0,36.0,27.82,East,91,0.0,2.0,87,0.00,,,0.02,,2013-02-05 22:11:00,
2013-02-05 14:21:00,40.0,36.0,27.82,ESE,120,0.0,2.0,87,0.00,,,0.02,,2013-02-05 22:21:00,
2013-02-05 14:31:00,40.0,36.0,27.82,West,281,0.0,2.0,87,0.00,,,0.02,,2013-02-05 22:31:00,
2013-02-05 14:41:00,40.0,36.0,27.82,West,281,0.0,2.0,87,0.00,,,0.02,,2013-02-05 22:41:00,
2013-02-05 14:52:00,39.0,35.0,27.83,NW,305,0.0,1.0,87,0.00,,,0.02,,2013-02-05 22:52:00,
2013-02-05 15:01:00,39.0,36.0,27.82,SE,136,0.0,1.0,90,0.00,,,0.02,,2013-02-05 23:01:00,
2013-02-05 15:11:00,39.0,36.0,27.82,SE,136,0.0,1.0,90,0.00,,,0.02,,2013-02-05 23:11:00,
2013-02-05 15:21:00,41.0,37.0,27.83,SE,131,0.0,1.0,87,0.00,,,0.02,,2013-02-05 23:21:00,
2013-02-05 15:31:00,41.0,37.0,27.83,SW,236,0.0,3.0,85,0.00,,,0.02,,2013-02-05 23:31:00,
2013-02-05 15:41:00,41.0,37.0,27.83,SW,236,0.0,3.0,85,0.00,,,0.02,,2013-02-05 23:41:00,
2013-02-05 15:52:00,41.0,37.0,27.83,NW,312,0.0,1.0,85,0.00,,,0.02,,2013-02-05 23:52:00,
2013-02-05 16:01:00,40.0,36.0,27.82,ENE,58,0.0,1.0,87,0.00,,,0.02,,2013-02-06 00:01:00,
2013-02-05 16:11:00,40.0,36.0,27.82,ENE,58,0.0,1.0,87,0.00,,,0.02,,2013-02-06 00:11:00,
2013-02-05 16:21:00,40.0,36.0,27.82,West,271,1.0,4.0,86,0.00,,,0.02,,2013-02-06 00:21:00,
2013-02-05 16:31:00,40.0,36.0,27.82,WNW,287,0.0,1.0,87,0.00,,,0.02,,2013-02-06 00:31:00,
2013-02-05 16:42:00,40.0,36.0,27.82,WNW,287,0.0,1.0,87,0.00,,,0.02,,2013-02-06 00:42:00,
2013-02-05 16:52:00,39.0,36.0,27.82,SSE,149,0.0,1.0,89,0.00,,,0.02,,2013-02-06 00:52:00,
2013-02-05 17:01:00,38.0,35.0,27.82,SSE,148,0.0,1.0,90,0.00,,,0.02,,2013-02-06 01:01:00,
2013-02-05 17:11:00,38.0,35.0,27.82,SSE,148,0.0,1.0,90,0.00,,,0.02,,2013-02-06 01:11:00,
2013-02-05 17:21:00,37.0,35.0,27.82,SE,141,0.0,1.0,91,0.00,,,0.02,,2013-02-06 01:21:00,
2013-02-05 17:31:00,37.0,35.0,27.83,WSW,255,0.0,1.0,91,0.00,,,0.02,,2013-02-06 01:31:00,
2013-02-05 17:41:00,37.0,35.0,27.83,WSW,255,0.0,1.0,91,0.00,,,0.02,,2013-02-06 01:41:00,
2013-02-05 17:52:00,36.0,34.0,27.83,WSW,255,0.0,1.0,92,0.00,,,0.02,,2013-02-06 01:52:00,
2013-02-05 18:01:00,36.0,34.0,27.83,SW,222,0.0,2.0,93,0.00,,,0.02,,2013-02-06 02:01:00,
2013-02-05 18:11:00,36.0,34.0,27.83,SW,222,0.0,2.0,93,0.00,,,0.02,,2013-02-06 02:11:00,
2013-02-05 18:21:00,36.0,34.0,27.83,SSW,203,0.0,1.0,93,0.00,,,0.02,,2013-02-06 02:21:00,
2013-02-05 18:31:00,36.0,34.0,27.83,SSW,203,0.0,1.0,94,0.00,,,0.02,,2013-02-06 02:31:00,
2013-02-05 18:41:00,36.0,34.0,27.83,SSW,203,0.0,1.0,94,0.00,,,0.02,,2013-02-06 02:41:00,
2013-02-05 18:52:00,35.0,33.0,27.83,WSW,238,0.0,1.0,94,0.00,,,0.02,,2013-02-06 02:52:00,
2013-02-05 19:02:00,35.0,33.0,27.83,WSW,238,0.0,1.0,94,0.00,,,0.02,,2013-02-06 03:02:00,
2013-02-05 19:11:00,35.0,33.0,27.83,WSW,238,0.0,1.0,94,0.00,,,0.02,,2013-02-06 03:11:00,
2013-02-05 19:21:00,35.0,34.0,27.84,SSW,200,0.0,1.0,95,0.00,,,0.02,,2013-02-06 03:21:00,
2013-02-05 19:31:00,35.0,34.0,27.85,WNW,288,0.0,2.0,95,0.00,,,0.02,,2013-02-06 03:31:00,
2013-02-05 19:42:00,35.0,34.0,27.85,WNW,288,0.0,2.0,95,0.00,,,0.02,,2013-02-06 03:42:00,
2013-02-05 19:52:00,35.0,33.0,27.85,WSW,243,0.0,1.0,94,0.00,,,0.02,,2013-02-06 03:52:00,
2013-02-05 20:01:00,35.0,33.0,27.85,SSW,207,0.0,1.0,94,0.00,,,0.02,,2013-02-06 04:01:00,
2013-02-05 20:11:00,35.0,33.0,27.85,SSW,207,0.0,1.0,94,0.00,,,0.02,,2013-02-06 04:11:00,
2013-02-05 20:21:00,35.0,33.0,27.85,SW,215,0.0,2.0,94,0.00,,,0.02,,2013-02-06 04:21:00,
2013-02-05 20:31:00,34.0,33.0,27.86,West,262,0.0,1.0,95,0.00,,,0.02,,2013-02-06 04:31:00,
2013-02-05 20:41:00,34.0,33.0,27.86,West,262,0.0,1.0,95,0.00,,,0.02,,2013-02-06 04:41:00,
2013-02-05 20:52:00,35.0,34.0,27.86,North,8,0.0,4.0,95,0.00,,,0.02,,2013-02-06 04:52:00,
2013-02-05 21:01:00,35.0,34.0,27.86,North,8,0.0,4.0,95,0.00,,,0.02,,2013-02-06 05:01:00,
2013-02-05 21:11:00,35.0,34.0,27.86,North,8,0.0,4.0,95,0.00,,,0.02,,2013-02-06 05:11:00,
2013-02-05 21:22:00,34.0,32.0,27.87,SE,132,0.0,0.0,94,0.00,,,0.02,,2013-02-06 05:22:00,
2013-02-05 21:31:00,33.0,32.0,27.87,SE,133,0.0,0.0,95,0.00,,,0.02,,2013-02-06 05:31:00,
2013-02-05 21:42:00,33.0,32.0,27.87,SE,133,0.0,0.0,95,0.00,,,0.02,,2013-02-06 05:42:00,
2013-02-05 21:53:00,33.0,32.0,27.88,SE,132,0.0,0.0,96,0.00,,,0.02,,2013-02-06 05:53:00,
2013-02-05 22:01:00,33.0,32.0,27.88,SE,132,0.0,0.0,96,0.00,,,0.02,,2013-02-06 06:01:00,
2013-02-05 22:11:00,33.0,32.0,27.88,SE,132,0.0,0.0,96,0.00,,,0.02,,2013-02-06 06:11:00,
2013-02-05 22:21:00,34.0,33.0,27.88,West,266,0.0,2.0,97,0.00,,,0.01,,2013-02-06 06:21:00,
2013-02-05 22:31:00,34.0,33.0,27.88,WNW,287,2.0,5.0,96,0.00,,,0.01,,2013-02-06 06:31:00,
2013-02-05 22:42:00,34.0,33.0,27.88,WNW,287,2.0,5.0,96,0.00,,,0.01,,2013-02-06 06:42:00,
2013-02-05 22:52:00,36.0,34.0,27.89,SE,125,1.0,7.0,92,0.00,,,0.01,,2013-02-06 06:52:00,
2013-02-05 23:01:00,33.0,31.0,27.89,ENE,64,0.0,1.0,93,0.00,,,0.01,,2013-02-06 07:01:00,
2013-02-05 23:11:00,33.0,31.0,27.89,ENE,64,0.0,1.0,93,0.00,,,0.01,,2013-02-06 07:11:00,
2013-02-05 23:21:00,33.0,32.0,27.90,SW,223,0.0,1.0,95,0.00,,,0.01,,2013-02-06 07:21:00,
2013-02-05 23:32:00,33.0,32.0,27.91,SW,224,0.0,1.0,96,0.00,,,0.01,,2013-02-06 07:32:00,
2013-02-05 23:41:00,33.0,32.0,27.91,SW,224,0.0,1.0,96,0.00,,,0.01,,2013-02-06 07:41:00,
2013-02-05 23:52:00,33.0,32.0,27.91,West,275,0.0,1.0,97,0.00,,,0.01,,2013-02-06 07:52:00,